Time,TemperatureF,DewpointF,PressureIn,WindDirection,WindDirectionDegrees,WindSpeedMPH,WindSpeedGustMPH,Humidity,HourlyPrecipIn,Conditions,Clouds,dailyrainin,SoftwareType,DateUTC
2013-08-16 00:01:00,57.9,57.4,30.18,NNE,22,0.0,0.0,98,0.00,,,0.00,VWS V14.01,2013-08-16 04:01:00,
2013-08-16 00:06:00,57.9,57.4,30.18,NNE,22,0.0,0.0,98,0.00,,,0.00,VWS V14.01,2013-08-16 04:06:00,
2013-08-16 00:11:00,57.9,57.4,30.18,NNE,22,0.0,0.0,98,0.00,,,0.00,VWS V14.01,2013-08-16 04:11:00,
2013-08-16 00:16:00,57.9,57.4,30.18,NNE,22,0.0,0.0,98,0.00,,,0.00,VWS V14.01,2013-08-16 04:16:00,
2013-08-16 00:21:00,57.7,57.2,30.18,NNE,22,0.0,0.0,98,0.00,,,0.00,VWS V14.01,2013-08-16 04:21:00,
2013-08-16 00:27:00,57.6,57.0,30.18,NNE,22,0.0,0.0,98,0.00,,,0.00,VWS V14.01,2013-08-16 04:27:00,
2013-08-16 00:32:00,57.6,57.0,30.18,NNE,22,0.0,0.0,98,0.00,,,0.00,VWS V14.01,2013-08-16 04:32:00,
2013-08-16 00:37:00,57.6,57.0,30.18,NNE,22,0.0,0.0,98,0.00,,,0.00,VWS V14.01,2013-08-16 04:37:00,
2013-08-16 00:42:00,57.4,56.8,30.18,NNE,22,0.0,0.0,98,0.00,,,0.00,VWS V14.01,2013-08-16 04:42:00,
2013-08-16 00:47:00,57.6,57.0,30.18,NNE,22,0.0,0.0,98,0.00,,,0.00,VWS V14.01,2013-08-16 04:47:00,
2013-08-16 00:52:00,57.4,56.8,30.18,NNE,22,0.0,0.0,98,0.00,,,0.00,VWS V14.01,2013-08-16 04:52:00,
2013-08-16 00:57:00,57.2,56.6,30.18,NNE,22,0.0,0.0,98,0.00,,,0.00,VWS V14.01,2013-08-16 04:57:00,
2013-08-16 01:02:00,57.4,56.8,30.18,NNE,22,0.0,0.0,98,0.00,,,0.00,VWS V14.01,2013-08-16 05:02:00,
2013-08-16 01:07:00,57.2,56.6,30.18,NNE,22,0.0,0.0,98,0.00,,,0.00,VWS V14.01,2013-08-16 05:07:00,
2013-08-16 01:12:00,57.2,56.6,30.18,NNE,22,0.0,0.0,98,0.00,,,0.00,VWS V14.01,2013-08-16 05:12:00,
2013-08-16 01:19:00,57.0,56.5,30.18,NNE,22,0.0,0.0,98,0.00,,,0.00,VWS V14.01,2013-08-16 05:19:00,
2013-08-16 01:24:00,57.0,56.5,30.18,NNE,22,0.0,0.0,98,0.00,,,0.00,VWS V14.01,2013-08-16 05:24:00,
2013-08-16 01:29:00,57.0,56.5,30.18,NNE,22,0.0,0.0,98,0.00,,,0.00,VWS V14.01,2013-08-16 05:29:00,
2013-08-16 01:34:00,56.8,56.3,30.18,NNE,22,0.0,0.0,98,0.00,,,0.00,VWS V14.01,2013-08-16 05:34:00,
2013-08-16 01:39:00,57.0,56.5,30.18,NNE,22,0.0,0.0,98,0.00,,,0.00,VWS V14.01,2013-08-16 05:39:00,
2013-08-16 01:44:00,57.2,56.6,30.18,NNE,22,0.0,0.0,98,0.00,,,0.00,VWS V14.01,2013-08-16 05:44:00,
2013-08-16 01:49:00,57.4,56.8,30.18,NNE,22,0.0,0.0,98,0.00,,,0.00,VWS V14.01,2013-08-16 05:49:00,
2013-08-16 01:54:00,57.6,57.0,30.18,NNE,22,0.0,0.0,98,0.00,,,0.00,VWS V14.01,2013-08-16 05:54:00,
2013-08-16 01:59:00,57.6,57.0,30.18,NNE,22,0.0,0.0,98,0.00,,,0.00,VWS V14.01,2013-08-16 05:59:00,
2013-08-16 02:04:00,57.7,57.2,30.15,NNE,22,0.0,0.0,98,0.00,,,0.00,VWS V14.01,2013-08-16 06:04:00,
2013-08-16 02:09:00,57.7,57.2,30.15,NNE,22,0.0,0.0,98,0.00,,,0.00,VWS V14.01,2013-08-16 06:09:00,
2013-08-16 02:14:00,57.9,57.4,30.15,NNE,22,0.0,0.0,98,0.00,,,0.00,VWS V14.01,2013-08-16 06:14:00,
2013-08-16 02:19:00,57.9,57.4,30.15,NNE,22,0.0,0.0,98,0.00,,,0.00,VWS V14.01,2013-08-16 06:19:00,
2013-08-16 02:24:00,58.1,57.5,30.15,NNE,22,0.0,0.0,98,0.00,,,0.00,VWS V14.01,2013-08-16 06:24:00,
2013-08-16 02:29:00,57.9,57.4,30.15,NNE,22,0.0,0.0,98,0.00,,,0.00,VWS V14.01,2013-08-16 06:29:00,
2013-08-16 02:34:00,57.7,57.2,30.18,NNE,22,0.0,0.0,98,0.00,,,0.00,VWS V14.01,2013-08-16 06:34:00,
2013-08-16 02:39:00,57.7,57.2,30.18,NNE,22,0.0,0.0,98,0.00,,,0.00,VWS V14.01,2013-08-16 06:39:00,
2013-08-16 02:44:00,57.7,57.2,30.18,NNE,22,0.0,0.0,98,0.00,,,0.00,VWS V14.01,2013-08-16 06:44:00,
2013-08-16 02:49:00,57.7,57.2,30.15,NNE,22,0.0,0.0,98,0.00,,,0.00,VWS V14.01,2013-08-16 06:49:00,
2013-08-16 02:54:00,57.7,57.2,30.15,NNE,22,0.0,0.0,98,0.00,,,0.00,VWS V14.01,2013-08-16 06:54:00,
2013-08-16 02:59:00,57.9,57.4,30.15,NNE,22,0.0,0.0,98,0.00,,,0.00,VWS V14.01,2013-08-16 06:59:00,
2013-08-16 03:04:00,57.9,57.4,30.15,NNE,22,0.0,0.0,98,0.00,,,0.00,VWS V14.01,2013-08-16 07:04:00,
2013-08-16 03:09:00,58.1,57.5,30.15,NNE,22,0.0,0.0,98,0.00,,,0.00,VWS V14.01,2013-08-16 07:09:00,
2013-08-16 03:14:00,58.1,57.5,30.15,NNE,22,0.0,0.0,98,0.00,,,0.00,VWS V14.01,2013-08-16 07:14:00,
2013-08-16 03:19:00,58.1,57.5,30.15,NNE,22,0.0,0.0,98,0.00,,,0.00,VWS V14.01,2013-08-16 07:19:00,
2013-08-16 03:24:00,57.9,57.4,30.15,NNE,22,0.0,0.0,98,0.00,,,0.00,VWS V14.01,2013-08-16 07:24:00,
2013-08-16 03:29:00,57.9,57.4,30.15,NNE,22,0.0,0.0,98,0.00,,,0.00,VWS V14.01,2013-08-16 07:29:00,
2013-08-16 03:34:00,57.6,57.0,30.15,NNE,22,0.0,0.0,98,0.00,,,0.00,VWS V14.01,2013-08-16 07:34:00,
2013-08-16 03:39:00,57.6,57.0,30.15,NNE,22,0.0,0.0,98,0.00,,,0.00,VWS V14.01,2013-08-16 07:39:00,
2013-08-16 03:44:00,57.4,56.8,30.15,NNE,22,0.0,0.0,98,0.00,,,0.00,VWS V14.01,2013-08-16 07:44:00,
2013-08-16 03:49:00,57.2,56.6,30.15,NNE,22,0.0,0.0,98,0.00,,,0.00,VWS V14.01,2013-08-16 07:49:00,
2013-08-16 03:55:00,57.2,56.6,30.15,NNE,22,0.0,0.0,98,0.00,,,0.00,VWS V14.01,2013-08-16 07:55:00,
2013-08-16 04:00:00,57.0,56.5,30.15,NNE,22,0.0,0.0,98,0.00,,,0.00,VWS V14.01,2013-08-16 08:00:00,
2013-08-16 04:05:00,57.0,56.5,30.15,NNE,22,0.0,0.0,98,0.00,,,0.00,VWS V14.01,2013-08-16 08:05:00,
2013-08-16 04:10:00,57.0,56.5,30.15,NNE,22,0.0,0.0,98,0.00,,,0.00,VWS V14.01,2013-08-16 08:10:00,
2013-08-16 04:15:00,57.0,56.5,30.15,NNE,22,0.0,0.0,98,0.00,,,0.00,VWS V14.01,2013-08-16 08:15:00,
2013-08-16 04:20:00,56.8,56.3,30.15,NNE,22,0.0,0.0,98,0.00,,,0.00,VWS V14.01,2013-08-16 08:20:00,
2013-08-16 04:25:00,56.8,56.3,30.15,NNE,22,0.0,0.0,98,0.00,,,0.00,VWS V14.01,2013-08-16 08:25:00,
2013-08-16 04:30:00,56.7,56.1,30.15,NNE,22,0.0,0.0,98,0.00,,,0.00,VWS V14.01,2013-08-16 08:30:00,
2013-08-16 04:35:00,56.7,56.1,30.15,NNE,22,0.0,0.0,98,0.00,,,0.00,VWS V14.01,2013-08-16 08:35:00,
2013-08-16 04:40:00,56.7,56.1,30.15,NNE,22,0.0,0.0,98,0.00,,,0.00,VWS V14.01,2013-08-16 08:40:00,
2013-08-16 04:45:00,56.5,55.9,30.15,NNE,22,0.0,0.0,98,0.00,,,0.00,VWS V14.01,2013-08-16 08:45:00,
2013-08-16 04:50:00,56.5,55.9,30.12,NNE,22,0.0,0.0,98,0.00,,,0.00,VWS V14.01,2013-08-16 08:50:00,
2013-08-16 04:55:00,56.5,55.9,30.12,NNE,22,0.0,0.0,98,0.00,,,0.00,VWS V14.01,2013-08-16 08:55:00,
2013-08-16 05:00:00,56.5,55.9,30.12,NNE,22,0.0,0.0,98,0.00,,,0.00,VWS V14.01,2013-08-16 09:00:00,
2013-08-16 05:05:00,56.5,55.9,30.12,NNE,22,0.0,0.0,98,0.00,,,0.00,VWS V14.01,2013-08-16 09:05:00,
2013-08-16 05:10:00,56.3,55.8,30.12,NNE,22,0.0,0.0,98,0.00,,,0.00,VWS V14.01,2013-08-16 09:10:00,
2013-08-16 05:15:00,56.1,55.6,30.12,NNE,22,0.0,0.0,98,0.00,,,0.00,VWS V14.01,2013-08-16 09:15:00,
2013-08-16 05:20:00,56.3,55.8,30.15,NNE,22,0.0,0.0,98,0.00,,,0.00,VWS V14.01,2013-08-16 09:20:00,
2013-08-16 05:25:00,56.3,55.8,30.15,NNE,22,0.0,0.0,98,0.00,,,0.00,VWS V14.01,2013-08-16 09:25:00,
2013-08-16 05:30:00,56.3,55.8,30.15,NNE,22,0.0,0.0,98,0.00,,,0.00,VWS V14.01,2013-08-16 09:30:00,
2013-08-16 05:35:00,56.5,55.9,30.15,NNE,22,0.0,0.0,98,0.00,,,0.00,VWS V14.01,2013-08-16 09:35:00,
2013-08-16 05:40:00,56.5,55.9,30.15,NNE,22,0.0,0.0,98,0.00,,,0.00,VWS V14.01,2013-08-16 09:40:00,
2013-08-16 05:45:00,56.7,56.1,30.15,NNE,22,0.0,0.0,98,0.00,,,0.00,VWS V14.01,2013-08-16 09:45:00,
2013-08-16 05:50:00,56.7,56.1,30.15,NNE,22,0.0,0.0,98,0.00,,,0.00,VWS V14.01,2013-08-16 09:50:00,
2013-08-16 05:55:00,56.8,56.3,30.15,NNE,22,0.0,0.0,98,0.00,,,0.00,VWS V14.01,2013-08-16 09:55:00,
2013-08-16 06:00:00,57.0,56.5,30.15,NNE,22,0.0,0.0,98,0.00,,,0.00,VWS V14.01,2013-08-16 10:00:00,
2013-08-16 06:05:00,57.2,56.6,30.15,NNE,22,0.0,0.0,98,0.00,,,0.00,VWS V14.01,2013-08-16 10:05:00,
2013-08-16 06:10:00,57.2,56.6,30.15,NNE,22,0.0,0.0,98,0.00,,,0.00,VWS V14.01,2013-08-16 10:10:00,
2013-08-16 06:15:00,57.4,56.8,30.15,NNE,22,0.0,0.0,98,0.00,,,0.00,VWS V14.01,2013-08-16 10:15:00,
2013-08-16 06:20:00,57.4,56.8,30.15,NNE,22,0.0,0.0,98,0.00,,,0.00,VWS V14.01,2013-08-16 10:20:00,
2013-08-16 06:25:00,57.6,57.0,30.15,NNE,22,0.0,0.0,98,0.00,,,0.00,VWS V14.01,2013-08-16 10:25:00,
2013-08-16 06:30:00,57.6,57.0,30.15,NNE,22,0.0,0.0,98,0.00,,,0.00,VWS V14.01,2013-08-16 10:30:00,
2013-08-16 06:35:00,57.6,57.0,30.18,NNE,22,0.0,0.0,98,0.00,,,0.00,VWS V14.01,2013-08-16 10:35:00,
2013-08-16 06:40:00,57.6,57.0,30.18,NNE,22,0.0,0.0,98,0.00,,,0.00,VWS V14.01,2013-08-16 10:40:00,
2013-08-16 06:45:00,57.7,57.2,30.18,NNE,22,0.0,0.0,98,0.00,,,0.00,VWS V14.01,2013-08-16 10:45:00,
2013-08-16 06:50:00,57.7,57.2,30.18,NNE,22,0.0,0.0,98,0.00,,,0.00,VWS V14.01,2013-08-16 10:50:00,
2013-08-16 06:55:00,57.7,57.2,30.18,NNE,22,0.0,0.0,98,0.00,,,0.00,VWS V14.01,2013-08-16 10:55:00,
2013-08-16 07:00:00,57.7,57.2,30.18,NNE,22,0.0,0.0,98,0.00,,,0.00,VWS V14.01,2013-08-16 11:00:00,
2013-08-16 07:05:00,57.9,57.4,30.18,NNE,22,0.0,0.0,98,0.00,,,0.00,VWS V14.01,2013-08-16 11:05:00,
2013-08-16 07:10:00,57.9,57.4,30.18,NNE,22,0.0,0.0,98,0.00,,,0.00,VWS V14.01,2013-08-16 11:10:00,
2013-08-16 07:15:00,57.9,57.4,30.18,NNE,22,0.0,0.0,98,0.00,,,0.00,VWS V14.01,2013-08-16 11:15:00,
2013-08-16 07:20:00,58.1,57.5,30.18,NNE,22,0.0,0.0,98,0.00,,,0.00,VWS V14.01,2013-08-16 11:20:00,
2013-08-16 07:25:00,58.3,57.7,30.18,NNE,22,0.0,0.0,98,0.00,,,0.00,VWS V14.01,2013-08-16 11:25:00,
2013-08-16 07:30:00,58.5,57.9,30.18,NNE,22,0.0,0.0,98,0.00,,,0.00,VWS V14.01,2013-08-16 11:30:00,
2013-08-16 07:35:00,58.6,58.1,30.18,NNE,22,0.0,0.0,98,0.00,,,0.00,VWS V14.01,2013-08-16 11:35:00,
2013-08-16 07:40:00,58.8,58.3,30.18,NNE,22,0.0,0.0,98,0.00,,,0.00,VWS V14.01,2013-08-16 11:40:00,
2013-08-16 07:45:00,59.0,58.4,30.18,NNE,22,0.0,0.0,98,0.00,,,0.00,VWS V14.01,2013-08-16 11:45:00,
2013-08-16 07:50:00,59.2,58.6,30.18,NNE,22,0.0,0.0,98,0.00,,,0.00,VWS V14.01,2013-08-16 11:50:00,
2013-08-16 07:55:00,59.4,58.8,30.18,NNE,22,0.0,0.0,98,0.00,,,0.00,VWS V14.01,2013-08-16 11:55:00,
2013-08-16 08:00:00,59.4,58.8,30.18,NNE,22,0.0,0.0,98,0.00,,,0.00,VWS V14.01,2013-08-16 12:00:00,
2013-08-16 08:05:00,59.5,59.0,30.18,NNE,22,0.0,0.0,98,0.00,,,0.00,VWS V14.01,2013-08-16 12:05:00,
2013-08-16 08:09:00,59.7,59.2,30.18,NNE,22,0.0,0.0,98,0.00,,,0.00,VWS V14.01,2013-08-16 12:09:00,
2013-08-16 08:15:00,59.9,59.3,30.18,NNE,22,0.0,0.0,98,0.00,,,0.00,VWS V14.01,2013-08-16 12:15:00,
2013-08-16 08:20:00,59.9,59.3,30.18,NNE,22,0.0,0.0,98,0.00,,,0.00,VWS V14.01,2013-08-16 12:20:00,
2013-08-16 08:25:00,60.3,59.7,30.18,NNE,22,0.0,0.0,98,0.00,,,0.00,VWS V14.01,2013-08-16 12:25:00,
2013-08-16 08:29:00,60.6,60.1,30.18,NNE,22,0.0,0.0,98,0.00,,,0.00,VWS V14.01,2013-08-16 12:29:00,
2013-08-16 08:35:00,60.8,60.2,30.18,NNE,22,0.0,0.0,98,0.00,,,0.00,VWS V14.01,2013-08-16 12:35:00,
2013-08-16 08:39:00,61.0,60.4,30.18,NNE,22,0.0,0.0,98,0.00,,,0.00,VWS V14.01,2013-08-16 12:39:00,
2013-08-16 08:45:00,61.3,60.8,30.18,NNE,22,0.0,0.0,98,0.00,,,0.00,VWS V14.01,2013-08-16 12:45:00,
2013-08-16 08:50:00,61.9,61.3,30.18,NNE,22,0.0,0.0,98,0.00,,,0.00,VWS V14.01,2013-08-16 12:50:00,
2013-08-16 08:55:00,62.2,61.7,30.18,NNE,22,0.0,0.0,98,0.00,,,0.00,VWS V14.01,2013-08-16 12:55:00,
2013-08-16 09:00:00,62.6,62.0,30.18,NNE,22,0.0,0.0,98,0.00,,,0.00,VWS V14.01,2013-08-16 13:00:00,
2013-08-16 09:05:00,62.8,62.2,30.18,NNE,22,0.0,0.0,98,0.00,,,0.00,VWS V14.01,2013-08-16 13:05:00,
2013-08-16 09:10:00,62.8,62.2,30.18,NNE,22,0.0,0.0,98,0.00,,,0.00,VWS V14.01,2013-08-16 13:10:00,
2013-08-16 09:15:00,63.0,62.4,30.18,NNE,22,0.0,0.0,98,0.00,,,0.00,VWS V14.01,2013-08-16 13:15:00,
2013-08-16 09:20:00,63.5,62.9,30.18,NNE,22,0.0,0.0,98,0.00,,,0.00,VWS V14.01,2013-08-16 13:20:00,
2013-08-16 09:25:00,64.2,63.7,30.18,NNE,22,0.0,0.0,98,0.00,,,0.00,VWS V14.01,2013-08-16 13:25:00,
2013-08-16 09:30:00,64.6,63.1,30.18,NNE,22,0.0,0.0,95,0.00,,,0.00,VWS V14.01,2013-08-16 13:30:00,
2013-08-16 09:35:00,65.3,62.9,30.21,NNE,22,0.0,0.0,92,0.00,,,0.00,VWS V14.01,2013-08-16 13:35:00,
2013-08-16 09:40:00,65.8,62.5,30.21,NNE,22,0.0,0.0,89,0.00,,,0.00,VWS V14.01,2013-08-16 13:40:00,
2013-08-16 09:45:00,66.6,60.9,30.21,NNE,22,0.0,0.0,82,0.00,,,0.00,VWS V14.01,2013-08-16 13:45:00,
2013-08-16 09:50:00,66.7,60.0,30.18,NNE,22,0.0,0.0,79,0.00,,,0.00,VWS V14.01,2013-08-16 13:50:00,
2013-08-16 09:55:00,66.2,56.5,30.18,SE,135,0.0,0.0,71,0.00,,,0.00,VWS V14.01,2013-08-16 13:55:00,
2013-08-16 10:00:00,66.4,57.1,30.18,SE,135,0.0,0.0,72,0.00,,,0.00,VWS V14.01,2013-08-16 14:00:00,
2013-08-16 10:05:00,66.4,57.1,30.18,SE,135,0.0,0.0,72,0.00,,,0.00,VWS V14.01,2013-08-16 14:05:00,
2013-08-16 10:10:00,66.7,57.0,30.18,SE,135,0.0,0.0,71,0.00,,,0.00,VWS V14.01,2013-08-16 14:10:00,
2013-08-16 10:15:00,66.9,57.2,30.18,SE,135,0.0,0.0,71,0.00,,,0.00,VWS V14.01,2013-08-16 14:15:00,
2013-08-16 10:20:00,66.4,56.7,30.21,SE,135,0.0,0.0,71,0.00,,,0.00,VWS V14.01,2013-08-16 14:20:00,
2013-08-16 10:25:00,66.6,56.9,30.21,SE,135,0.0,0.0,71,0.00,,,0.00,VWS V14.01,2013-08-16 14:25:00,
2013-08-16 10:30:00,66.6,57.3,30.21,SE,135,0.0,0.0,72,0.00,,,0.00,VWS V14.01,2013-08-16 14:30:00,
2013-08-16 10:35:00,66.6,57.3,30.21,SE,135,0.0,0.0,72,0.00,,,0.00,VWS V14.01,2013-08-16 14:35:00,
2013-08-16 10:40:00,66.7,58.2,30.21,SE,135,0.0,0.0,74,0.00,,,0.00,VWS V14.01,2013-08-16 14:40:00,
2013-08-16 10:45:00,66.7,58.2,30.21,SE,135,0.0,0.0,74,0.00,,,0.00,VWS V14.01,2013-08-16 14:45:00,
2013-08-16 10:50:00,66.6,57.7,30.21,SE,135,0.0,0.0,73,0.00,,,0.00,VWS V14.01,2013-08-16 14:50:00,
2013-08-16 10:55:00,66.6,57.3,30.21,SE,135,0.0,2.2,72,0.00,,,0.00,VWS V14.01,2013-08-16 14:55:00,
2013-08-16 11:00:00,66.6,57.3,30.21,SE,135,0.0,0.0,72,0.00,,,0.00,VWS V14.01,2013-08-16 15:00:00,
2013-08-16 11:05:00,66.7,57.0,30.21,SE,135,0.0,2.2,71,0.00,,,0.00,VWS V14.01,2013-08-16 15:05:00,
2013-08-16 11:10:00,67.1,57.8,30.21,SE,135,0.0,0.0,72,0.00,,,0.00,VWS V14.01,2013-08-16 15:10:00,
2013-08-16 11:16:00,67.3,58.0,30.21,SE,135,0.0,0.0,72,0.00,,,0.00,VWS V14.01,2013-08-16 15:16:00,
2013-08-16 11:21:00,67.6,57.9,30.21,SE,135,2.2,2.7,71,0.00,,,0.00,VWS V14.01,2013-08-16 15:21:00,
2013-08-16 11:26:00,67.6,57.5,30.21,SE,135,0.0,0.0,70,0.00,,,0.00,VWS V14.01,2013-08-16 15:26:00,
2013-08-16 11:31:00,68.0,57.5,30.21,SE,135,0.0,0.0,69,0.00,,,0.00,VWS V14.01,2013-08-16 15:31:00,
2013-08-16 11:36:00,68.2,57.2,30.21,SE,135,0.0,2.7,68,0.00,,,0.00,VWS V14.01,2013-08-16 15:36:00,
2013-08-16 11:41:00,68.5,57.6,30.21,SE,135,0.0,0.0,68,0.00,,,0.00,VWS V14.01,2013-08-16 15:41:00,
2013-08-16 11:46:00,68.7,57.3,30.21,SE,135,2.2,2.7,67,0.00,,,0.00,VWS V14.01,2013-08-16 15:46:00,
2013-08-16 11:51:00,68.7,56.9,30.18,NE,45,0.0,0.0,66,0.00,,,0.00,VWS V14.01,2013-08-16 15:51:00,
2013-08-16 11:56:00,69.3,57.4,30.18,NE,45,0.0,0.0,66,0.00,,,0.00,VWS V14.01,2013-08-16 15:56:00,
2013-08-16 12:01:00,70.2,57.0,30.18,NE,45,3.6,3.6,63,0.00,,,0.00,VWS V14.01,2013-08-16 16:01:00,
2013-08-16 12:06:00,70.5,56.0,30.21,NE,45,0.0,2.2,60,0.00,,,0.00,VWS V14.01,2013-08-16 16:06:00,
2013-08-16 12:11:00,71.2,57.6,30.21,NE,45,2.2,2.2,62,0.00,,,0.00,VWS V14.01,2013-08-16 16:11:00,
2013-08-16 12:16:00,71.6,56.1,30.21,NE,45,0.0,0.0,58,0.00,,,0.00,VWS V14.01,2013-08-16 16:16:00,
2013-08-16 12:21:00,71.6,55.1,30.21,NE,45,0.0,0.0,56,0.00,,,0.00,VWS V14.01,2013-08-16 16:21:00,
2013-08-16 12:26:00,72.1,55.1,30.21,NE,45,2.2,2.2,55,0.00,,,0.00,VWS V14.01,2013-08-16 16:26:00,
2013-08-16 12:31:00,72.1,55.1,30.21,NE,45,3.1,3.1,55,0.00,,,0.00,VWS V14.01,2013-08-16 16:31:00,
2013-08-16 12:36:00,73.0,55.9,30.21,SSW,202,0.0,2.7,55,0.00,,,0.00,VWS V14.01,2013-08-16 16:36:00,
2013-08-16 12:41:00,73.0,53.3,30.21,SSW,202,0.0,0.0,50,0.00,,,0.00,VWS V14.01,2013-08-16 16:41:00,
2013-08-16 12:46:00,72.7,53.5,30.21,SSW,202,2.7,2.7,51,0.00,,,0.00,VWS V14.01,2013-08-16 16:46:00,
2013-08-16 12:51:00,72.1,53.0,30.21,South,180,3.1,3.1,51,0.00,,,0.00,VWS V14.01,2013-08-16 16:51:00,
2013-08-16 12:56:00,71.2,53.2,30.21,SE,135,0.0,0.0,53,0.00,,,0.00,VWS V14.01,2013-08-16 16:56:00,
2013-08-16 13:01:00,71.1,54.1,30.21,SSE,158,0.0,0.0,55,0.00,,,0.00,VWS V14.01,2013-08-16 17:01:00,
2013-08-16 13:06:00,72.0,53.9,30.21,SSE,158,0.0,0.0,53,0.00,,,0.00,VWS V14.01,2013-08-16 17:06:00,
2013-08-16 13:11:00,72.1,54.1,30.21,SSE,158,2.2,2.2,53,0.00,,,0.00,VWS V14.01,2013-08-16 17:11:00,
2013-08-16 13:16:00,73.0,53.9,30.21,SSE,158,2.7,2.7,51,0.00,,,0.00,VWS V14.01,2013-08-16 17:16:00,
2013-08-16 13:21:00,74.1,52.0,30.18,SSW,202,2.2,3.6,46,0.00,,,0.00,VWS V14.01,2013-08-16 17:21:00,
2013-08-16 13:26:00,74.3,51.6,30.18,SSW,202,2.7,2.7,45,0.00,,,0.00,VWS V14.01,2013-08-16 17:26:00,
2013-08-16 13:31:00,74.5,52.4,30.18,SSW,202,2.7,2.7,46,0.00,,,0.00,VWS V14.01,2013-08-16 17:31:00,
2013-08-16 13:36:00,74.3,50.4,30.18,SSW,202,3.1,3.1,43,0.00,,,0.00,VWS V14.01,2013-08-16 17:36:00,
2013-08-16 13:41:00,73.9,50.7,30.18,SSW,202,0.0,0.0,44,0.00,,,0.00,VWS V14.01,2013-08-16 17:41:00,
2013-08-16 13:46:00,73.6,51.0,30.18,SSW,202,0.0,0.0,45,0.00,,,0.00,VWS V14.01,2013-08-16 17:46:00,
2013-08-16 13:51:00,72.7,49.5,30.18,SSW,202,0.0,3.6,44,0.00,,,0.00,VWS V14.01,2013-08-16 17:51:00,
2013-08-16 13:57:00,73.4,52.0,30.18,SSW,202,0.0,0.0,47,0.00,,,0.00,VWS V14.01,2013-08-16 17:57:00,
2013-08-16 14:02:00,73.0,50.5,30.18,SSW,202,0.0,0.0,45,0.00,,,0.00,VWS V14.01,2013-08-16 18:02:00,
2013-08-16 14:07:00,72.7,50.1,30.18,SSW,202,0.0,2.2,45,0.00,,,0.00,VWS V14.01,2013-08-16 18:07:00,
2013-08-16 14:12:00,72.5,51.2,30.18,SSW,202,0.0,0.0,47,0.00,,,0.00,VWS V14.01,2013-08-16 18:12:00,
2013-08-16 14:17:00,72.7,50.7,30.18,SSW,202,0.0,2.2,46,0.00,,,0.00,VWS V14.01,2013-08-16 18:17:00,
2013-08-16 14:22:00,74.5,53.0,30.18,SSW,202,2.2,2.2,47,0.00,,,0.00,VWS V14.01,2013-08-16 18:22:00,
2013-08-16 14:27:00,76.1,53.8,30.18,SSW,202,0.0,0.0,46,0.00,,,0.00,VWS V14.01,2013-08-16 18:27:00,
2013-08-16 14:32:00,75.6,50.9,30.18,SSW,202,0.0,2.7,42,0.00,,,0.00,VWS V14.01,2013-08-16 18:32:00,
2013-08-16 14:37:00,75.6,50.2,30.18,SSW,202,3.1,3.1,41,0.00,,,0.00,VWS V14.01,2013-08-16 18:37:00,
2013-08-16 14:42:00,73.6,49.1,30.18,SSW,202,0.0,0.0,42,0.00,,,0.00,VWS V14.01,2013-08-16 18:42:00,
2013-08-16 14:47:00,73.9,50.1,30.18,SSW,202,0.0,0.0,43,0.00,,,0.00,VWS V14.01,2013-08-16 18:47:00,
2013-08-16 14:52:00,73.4,50.8,30.18,SSW,202,2.7,3.1,45,0.00,,,0.00,VWS V14.01,2013-08-16 18:52:00,
2013-08-16 14:57:00,72.9,50.3,30.18,SSW,202,0.0,0.0,45,0.00,,,0.00,VWS V14.01,2013-08-16 18:57:00,
2013-08-16 15:02:00,73.2,50.0,30.18,SSW,202,0.0,2.2,44,0.00,,,0.00,VWS V14.01,2013-08-16 19:02:00,
2013-08-16 15:07:00,73.0,50.5,30.18,SSW,202,0.0,0.0,45,0.00,,,0.00,VWS V14.01,2013-08-16 19:07:00,
2013-08-16 15:12:00,74.1,52.0,30.18,SSW,202,0.0,2.2,46,0.00,,,0.00,VWS V14.01,2013-08-16 19:12:00,
2013-08-16 15:17:00,74.8,51.5,30.18,SSW,202,0.0,2.2,44,0.00,,,0.00,VWS V14.01,2013-08-16 19:17:00,
2013-08-16 15:22:00,75.0,50.4,30.15,SSW,202,2.7,2.7,42,0.00,,,0.00,VWS V14.01,2013-08-16 19:22:00,
2013-08-16 15:27:00,75.4,52.0,30.15,SSW,202,3.1,3.1,44,0.00,,,0.00,VWS V14.01,2013-08-16 19:27:00,
2013-08-16 15:32:00,74.7,51.3,30.15,SSW,202,0.0,2.2,44,0.00,,,0.00,VWS V14.01,2013-08-16 19:32:00,
2013-08-16 15:37:00,74.3,51.0,30.15,SSW,202,0.0,2.2,44,0.00,,,0.00,VWS V14.01,2013-08-16 19:37:00,
2013-08-16 15:42:00,73.8,50.5,30.15,SSW,202,2.7,2.7,44,0.00,,,0.00,VWS V14.01,2013-08-16 19:42:00,
2013-08-16 15:47:00,72.9,51.5,30.15,SSW,202,3.6,3.6,47,0.00,,,0.00,VWS V14.01,2013-08-16 19:47:00,
2013-08-16 15:52:00,73.0,51.1,30.18,SSW,202,0.0,0.0,46,0.00,,,0.00,VWS V14.01,2013-08-16 19:52:00,
2013-08-16 15:57:00,73.6,52.7,30.18,SE,135,2.7,2.7,48,0.00,,,0.00,VWS V14.01,2013-08-16 19:57:00,
2013-08-16 16:02:00,73.2,51.2,30.18,SSW,202,2.7,3.1,46,0.00,,,0.00,VWS V14.01,2013-08-16 20:02:00,
2013-08-16 16:07:00,73.0,51.6,30.15,SSE,158,0.0,0.0,47,0.00,,,0.00,VWS V14.01,2013-08-16 20:07:00,
2013-08-16 16:13:00,73.2,51.2,30.15,SSW,202,0.0,2.2,46,0.00,,,0.00,VWS V14.01,2013-08-16 20:13:00,
2013-08-16 16:18:00,73.6,51.5,30.15,SSW,202,2.2,2.7,46,0.00,,,0.00,VWS V14.01,2013-08-16 20:18:00,
2013-08-16 16:23:00,73.8,51.1,30.15,SSW,202,2.2,2.2,45,0.00,,,0.00,VWS V14.01,2013-08-16 20:23:00,
2013-08-16 16:28:00,73.8,51.7,30.15,SSW,202,2.2,2.2,46,0.00,,,0.00,VWS V14.01,2013-08-16 20:28:00,
2013-08-16 16:33:00,73.6,50.3,30.15,SSW,202,4.9,4.9,44,0.00,,,0.00,VWS V14.01,2013-08-16 20:33:00,
2013-08-16 16:38:00,73.8,52.9,30.15,SSW,202,0.0,0.0,48,0.00,,,0.00,VWS V14.01,2013-08-16 20:38:00,
2013-08-16 16:43:00,73.8,51.7,30.15,SSW,202,0.0,0.0,46,0.00,,,0.00,VWS V14.01,2013-08-16 20:43:00,
2013-08-16 16:48:00,73.6,51.0,30.15,SSW,202,0.0,0.0,45,0.00,,,0.00,VWS V14.01,2013-08-16 20:48:00,
2013-08-16 16:53:00,73.0,50.5,30.15,SSW,202,2.2,2.2,45,0.00,,,0.00,VWS V14.01,2013-08-16 20:53:00,
2013-08-16 16:58:00,73.2,51.8,30.15,SSW,202,0.0,0.0,47,0.00,,,0.00,VWS V14.01,2013-08-16 20:58:00,
2013-08-16 17:03:00,73.0,51.1,30.15,SSW,202,0.0,0.0,46,0.00,,,0.00,VWS V14.01,2013-08-16 21:03:00,
2013-08-16 17:08:00,72.9,51.5,30.15,SSW,202,0.0,2.2,47,0.00,,,0.00,VWS V14.01,2013-08-16 21:08:00,
2013-08-16 17:13:00,73.0,52.2,30.15,SSW,202,0.0,0.0,48,0.00,,,0.00,VWS V14.01,2013-08-16 21:13:00,
2013-08-16 17:18:00,73.4,52.0,30.15,SSW,202,0.0,2.2,47,0.00,,,0.00,VWS V14.01,2013-08-16 21:18:00,
2013-08-16 17:23:00,73.4,52.0,30.15,SSW,202,2.2,3.1,47,0.00,,,0.00,VWS V14.01,2013-08-16 21:23:00,
2013-08-16 17:28:00,73.6,53.3,30.15,SSW,202,0.0,2.2,49,0.00,,,0.00,VWS V14.01,2013-08-16 21:28:00,
2013-08-16 17:34:00,73.6,52.1,30.15,SSW,202,0.0,3.1,47,0.00,,,0.00,VWS V14.01,2013-08-16 21:34:00,
2013-08-16 17:39:00,73.6,53.8,30.15,SSW,202,0.0,2.7,50,0.00,,,0.00,VWS V14.01,2013-08-16 21:39:00,
2013-08-16 17:44:00,73.2,50.6,30.15,SSW,202,0.0,0.0,45,0.00,,,0.00,VWS V14.01,2013-08-16 21:44:00,
2013-08-16 17:49:00,73.2,51.8,30.15,SSW,202,0.0,0.0,47,0.00,,,0.00,VWS V14.01,2013-08-16 21:49:00,
2013-08-16 17:54:00,73.2,52.9,30.15,SSW,202,0.0,0.0,49,0.00,,,0.00,VWS V14.01,2013-08-16 21:54:00,
2013-08-16 17:59:00,72.9,52.0,30.15,SSW,202,2.7,4.9,48,0.00,,,0.00,VWS V14.01,2013-08-16 21:59:00,
2013-08-16 18:04:00,72.9,52.0,30.15,SSW,202,0.0,0.0,48,0.00,,,0.00,VWS V14.01,2013-08-16 22:04:00,
2013-08-16 18:09:00,72.9,52.0,30.15,SSW,202,0.0,3.1,48,0.00,,,0.00,VWS V14.01,2013-08-16 22:09:00,
2013-08-16 18:14:00,72.5,51.7,30.15,SSE,158,0.0,3.1,48,0.00,,,0.00,VWS V14.01,2013-08-16 22:14:00,
2013-08-16 18:19:00,72.3,51.5,30.15,SSE,158,2.2,2.2,48,0.00,,,0.00,VWS V14.01,2013-08-16 22:19:00,
2013-08-16 18:24:00,72.3,52.1,30.15,SSE,158,2.2,2.2,49,0.00,,,0.00,VWS V14.01,2013-08-16 22:24:00,
2013-08-16 18:29:00,72.1,51.9,30.15,SSE,158,0.0,0.0,49,0.00,,,0.00,VWS V14.01,2013-08-16 22:29:00,
2013-08-16 18:35:00,72.0,52.3,30.15,SSE,158,2.2,2.2,50,0.00,,,0.00,VWS V14.01,2013-08-16 22:35:00,
2013-08-16 18:40:00,71.6,52.5,30.15,SSE,158,0.0,0.0,51,0.00,,,0.00,VWS V14.01,2013-08-16 22:40:00,
2013-08-16 18:45:00,71.6,53.6,30.15,SSE,158,2.2,3.1,53,0.00,,,0.00,VWS V14.01,2013-08-16 22:45:00,
2013-08-16 18:50:00,71.6,53.6,30.15,SSE,158,0.0,0.0,53,0.00,,,0.00,VWS V14.01,2013-08-16 22:50:00,
2013-08-16 18:55:00,71.4,53.4,30.15,SSE,158,0.0,0.0,53,0.00,,,0.00,VWS V14.01,2013-08-16 22:55:00,
2013-08-16 19:00:00,70.9,53.9,30.15,SSE,158,0.0,0.0,55,0.00,,,0.00,VWS V14.01,2013-08-16 23:00:00,
2013-08-16 19:05:00,70.5,54.1,30.15,SSE,158,0.0,0.0,56,0.00,,,0.00,VWS V14.01,2013-08-16 23:05:00,
2013-08-16 19:10:00,70.2,54.7,30.15,SSE,158,0.0,0.0,58,0.00,,,0.00,VWS V14.01,2013-08-16 23:10:00,
2013-08-16 19:15:00,69.8,55.3,30.15,SSE,158,0.0,0.0,60,0.00,,,0.00,VWS V14.01,2013-08-16 23:15:00,
2013-08-16 19:20:00,69.4,55.4,30.15,SSE,158,0.0,0.0,61,0.00,,,0.00,VWS V14.01,2013-08-16 23:20:00,
2013-08-16 19:25:00,69.3,55.7,30.15,SSE,158,0.0,0.0,62,0.00,,,0.00,VWS V14.01,2013-08-16 23:25:00,
2013-08-16 19:30:00,68.9,55.4,30.15,SSE,158,0.0,0.0,62,0.00,,,0.00,VWS V14.01,2013-08-16 23:30:00,
2013-08-16 19:35:00,68.7,56.1,30.15,SSE,158,0.0,0.0,64,0.00,,,0.00,VWS V14.01,2013-08-16 23:35:00,
2013-08-16 19:40:00,68.5,56.3,30.15,SSE,158,0.0,0.0,65,0.00,,,0.00,VWS V14.01,2013-08-16 23:40:00,
2013-08-16 19:45:00,68.2,56.4,30.15,SSE,158,0.0,0.0,66,0.00,,,0.00,VWS V14.01,2013-08-16 23:45:00,
2013-08-16 19:50:00,68.0,56.7,30.15,SSE,158,0.0,0.0,67,0.00,,,0.00,VWS V14.01,2013-08-16 23:50:00,
2013-08-16 19:55:00,67.6,57.1,30.15,SSE,158,0.0,0.0,69,0.00,,,0.00,VWS V14.01,2013-08-16 23:55:00,
2013-08-16 20:00:00,67.3,57.2,30.15,SSE,158,0.0,0.0,70,0.00,,,0.00,VWS V14.01,2013-08-17 00:00:00,
2013-08-16 20:05:00,66.9,57.2,30.15,SSE,158,0.0,0.0,71,0.00,,,0.00,VWS V14.01,2013-08-17 00:05:00,
2013-08-16 20:10:00,66.4,57.1,30.15,SSE,158,0.0,0.0,72,0.00,,,0.00,VWS V14.01,2013-08-17 00:10:00,
2013-08-16 20:15:00,66.2,57.7,30.15,SSE,158,0.0,0.0,74,0.00,,,0.00,VWS V14.01,2013-08-17 00:15:00,
2013-08-16 20:20:00,65.8,58.1,30.15,SSE,158,0.0,0.0,76,0.00,,,0.00,VWS V14.01,2013-08-17 00:20:00,
2013-08-16 20:25:00,65.5,58.5,30.15,SSE,158,0.0,0.0,78,0.00,,,0.00,VWS V14.01,2013-08-17 00:25:00,
2013-08-16 20:30:00,65.3,58.6,30.15,SSE,158,0.0,0.0,79,0.00,,,0.00,VWS V14.01,2013-08-17 00:30:00,
2013-08-16 20:35:00,65.1,58.8,30.18,SSE,158,0.0,0.0,80,0.00,,,0.00,VWS V14.01,2013-08-17 00:35:00,
2013-08-16 20:40:00,64.8,59.5,30.18,SSE,158,0.0,0.0,83,0.00,,,0.00,VWS V14.01,2013-08-17 00:40:00,
2013-08-16 20:45:00,64.6,59.3,30.18,SSE,158,0.0,0.0,83,0.00,,,0.00,VWS V14.01,2013-08-17 00:45:00,
2013-08-16 20:50:00,64.4,59.8,30.18,SSE,158,0.0,0.0,85,0.00,,,0.00,VWS V14.01,2013-08-17 00:50:00,
2013-08-16 20:55:00,64.2,60.3,30.18,SSE,158,0.0,0.0,87,0.00,,,0.00,VWS V14.01,2013-08-17 00:55:00,
2013-08-16 21:00:00,64.0,60.4,30.18,SSE,158,0.0,0.0,88,0.00,,,0.00,VWS V14.01,2013-08-17 01:00:00,
2013-08-16 21:05:00,63.9,60.6,30.18,SSE,158,0.0,0.0,89,0.00,,,0.00,VWS V14.01,2013-08-17 01:05:00,
2013-08-16 21:10:00,63.7,60.7,30.18,SSE,158,0.0,0.0,90,0.00,,,0.00,VWS V14.01,2013-08-17 01:10:00,
2013-08-16 21:15:00,63.5,60.8,30.18,SSE,158,0.0,0.0,91,0.00,,,0.00,VWS V14.01,2013-08-17 01:15:00,
2013-08-16 21:20:00,63.1,60.5,30.21,SSE,158,0.0,0.0,91,0.00,,,0.00,VWS V14.01,2013-08-17 01:20:00,
2013-08-16 21:25:00,63.0,60.6,30.21,SSE,158,0.0,0.0,92,0.00,,,0.00,VWS V14.01,2013-08-17 01:25:00,
2013-08-16 21:30:00,62.8,60.4,30.21,SSE,158,0.0,0.0,92,0.00,,,0.00,VWS V14.01,2013-08-17 01:30:00,
2013-08-16 21:35:00,62.8,60.7,30.21,SSE,158,0.0,0.0,93,0.00,,,0.00,VWS V14.01,2013-08-17 01:35:00,
2013-08-16 21:41:00,62.4,60.4,30.21,SSE,158,0.0,0.0,93,0.00,,,0.00,VWS V14.01,2013-08-17 01:41:00,
2013-08-16 21:46:00,62.2,60.5,30.21,SSE,158,0.0,0.0,94,0.00,,,0.00,VWS V14.01,2013-08-17 01:46:00,
2013-08-16 21:51:00,61.9,60.1,30.21,SSE,158,0.0,0.0,94,0.00,,,0.00,VWS V14.01,2013-08-17 01:51:00,
2013-08-16 21:56:00,61.7,60.0,30.21,SSE,158,0.0,0.0,94,0.00,,,0.00,VWS V14.01,2013-08-17 01:56:00,
2013-08-16 22:01:00,61.5,60.1,30.21,SSE,158,0.0,0.0,95,0.00,,,0.00,VWS V14.01,2013-08-17 02:01:00,
2013-08-16 22:06:00,61.3,59.9,30.21,SSE,158,0.0,0.0,95,0.00,,,0.00,VWS V14.01,2013-08-17 02:06:00,
2013-08-16 22:11:00,61.2,59.7,30.21,SSE,158,0.0,0.0,95,0.00,,,0.00,VWS V14.01,2013-08-17 02:11:00,
2013-08-16 22:16:00,61.0,59.8,30.21,SSE,158,0.0,0.0,96,0.00,,,0.00,VWS V14.01,2013-08-17 02:16:00,
2013-08-16 22:21:00,61.0,59.8,30.21,SSE,158,0.0,0.0,96,0.00,,,0.00,VWS V14.01,2013-08-17 02:21:00,
2013-08-16 22:26:00,60.6,59.8,30.21,SSE,158,0.0,0.0,97,0.00,,,0.00,VWS V14.01,2013-08-17 02:26:00,
2013-08-16 22:31:00,60.4,59.6,30.21,SSE,158,0.0,0.0,97,0.00,,,0.00,VWS V14.01,2013-08-17 02:31:00,
2013-08-16 22:36:00,60.4,59.6,30.21,SSE,158,0.0,0.0,97,0.00,,,0.00,VWS V14.01,2013-08-17 02:36:00,
2013-08-16 22:41:00,60.4,59.9,30.21,SSE,158,0.0,0.0,98,0.00,,,0.00,VWS V14.01,2013-08-17 02:41:00,
2013-08-16 22:46:00,60.3,59.7,30.21,SSE,158,0.0,0.0,98,0.00,,,0.00,VWS V14.01,2013-08-17 02:46:00,
2013-08-16 22:51:00,60.1,59.5,30.21,SSE,158,0.0,0.0,98,0.00,,,0.00,VWS V14.01,2013-08-17 02:51:00,
2013-08-16 22:56:00,60.1,59.5,30.21,SSE,158,0.0,0.0,98,0.00,,,0.00,VWS V14.01,2013-08-17 02:56:00,
2013-08-16 23:01:00,59.9,59.3,30.21,SSE,158,0.0,0.0,98,0.00,,,0.00,VWS V14.01,2013-08-17 03:01:00,
2013-08-16 23:06:00,59.9,59.3,30.21,SSE,158,0.0,0.0,98,0.00,,,0.00,VWS V14.01,2013-08-17 03:06:00,
2013-08-16 23:11:00,59.9,59.3,30.21,SSE,158,0.0,0.0,98,0.00,,,0.00,VWS V14.01,2013-08-17 03:11:00,
2013-08-16 23:16:00,59.7,59.2,30.21,SSE,158,0.0,0.0,98,0.00,,,0.00,VWS V14.01,2013-08-17 03:16:00,
2013-08-16 23:21:00,59.7,59.2,30.21,SSE,158,0.0,0.0,98,0.00,,,0.00,VWS V14.01,2013-08-17 03:21:00,
2013-08-16 23:26:00,59.7,59.2,30.21,SSE,158,0.0,0.0,98,0.00,,,0.00,VWS V14.01,2013-08-17 03:26:00,
2013-08-16 23:31:00,59.7,59.2,30.21,SSE,158,0.0,0.0,98,0.00,,,0.00,VWS V14.01,2013-08-17 03:31:00,
2013-08-16 23:36:00,59.5,59.0,30.21,SSE,158,0.0,0.0,98,0.00,,,0.00,VWS V14.01,2013-08-17 03:36:00,
2013-08-16 23:41:00,59.7,59.2,30.21,SSE,158,0.0,0.0,98,0.00,,,0.00,VWS V14.01,2013-08-17 03:41:00,
2013-08-16 23:46:00,59.5,59.0,30.21,SSE,158,0.0,0.0,98,0.00,,,0.00,VWS V14.01,2013-08-17 03:46:00,
2013-08-16 23:51:00,59.7,59.2,30.21,SSE,158,0.0,0.0,98,0.00,,,0.00,VWS V14.01,2013-08-17 03:51:00,
2013-08-16 23:56:00,59.5,59.0,30.21,SSE,158,0.0,0.0,98,0.00,,,0.00,VWS V14.01,2013-08-17 03:56:00,